FUNCUBE-1 (AO-73)

Last updated on Fri Dec 19 2025 00:03:11 GMT+0000 (Coordinated Universal Time)

1 39444U 13066AE 25352.43550844 .00007183 00000+0 48724-3 0 9996 2 39444 97.8073 315.7836 0041042 97.2072 263.3823 15.06049346652425
UTC large
Height (km)
Speed (km/s)
/
Latitude / Longitude
Inclination (degrees)
Orbital Period (minutes)
Azimuth
Elevation
Range (km)
Doppler Factor

Next 0 passes for location: London (51.5072 / 0.1276)

Sorry there are no passes over London.